Previsão horária em Barnowko

Hoje, 30 Outubro, Sexta-feira

Tempo Temperatura Precipitação Vento Pressão Humidade
00:00 +7°C° 0 mm 3 m/s 758 mmHg 88%
01:00 +7°C° 0 mm 3 m/s 758 mmHg 89%
02:00 +7°C° 0 mm 3 m/s 758 mmHg 88%
03:00 +7°C° 0 mm 3 m/s 758 mmHg 88%
04:00 +7°C° 0 mm 3 m/s 757 mmHg 87%
05:00 +7°C° 0.2 mm 3 m/s 757 mmHg 89%
06:00 +7°C° 0.2 mm 3 m/s 757 mmHg 91%
07:00 +8°C° 0 mm 3 m/s 757 mmHg 90%
08:00 +8°C° 0.5 mm 3 m/s 757 mmHg 91%
09:00 +8°C° 0.5 mm 3 m/s 757 mmHg 93%
10:00 +8°C° 0.5 mm 4 m/s 757 mmHg 94%
11:00 +9°C° 0.8 mm 3 m/s 756 mmHg 95%
12:00 +9°C° 0.8 mm 3 m/s 756 mmHg 96%
13:00 +9°C° 0.8 mm 3 m/s 756 mmHg 97%
14:00 +10°C° 0.7 mm 3 m/s 756 mmHg 97%
15:00 +10°C° 0.7 mm 3 m/s 756 mmHg 97%
16:00 +11°C° 0.7 mm 3 m/s 756 mmHg 97%
17:00 +11°C° 0.3 mm 4 m/s 756 mmHg 96%
18:00 +12°C° 0.3 mm 4 m/s 757 mmHg 96%
19:00 +12°C° 0.3 mm 4 m/s 757 mmHg 95%
20:00 +13°C° 0.5 mm 4 m/s 758 mmHg 95%
21:00 +13°C° 0.5 mm 4 m/s 758 mmHg 95%
22:00 +13°C° 0.5 mm 4 m/s 759 mmHg 94%
23:00 +13°C° 0 mm 4 m/s 759 mmHg 94%

Amanhã, 31 Outubro, Sábado

Tempo Temperatura Precipitação Vento Pressão Humidade
00:00 +13°C° 0 mm 4 m/s 759 mmHg 94%
01:00 +13°C° 0 mm 4 m/s 760 mmHg 94%
02:00 +13°C° 0.1 mm 3 m/s 760 mmHg 95%
03:00 +12°C° 0.1 mm 3 m/s 760 mmHg 96%
04:00 +12°C° 0.1 mm 3 m/s 760 mmHg 96%
05:00 +13°C° 0 mm 2 m/s 761 mmHg 97%
06:00 +13°C° 0 mm 2 m/s 761 mmHg 97%
07:00 +13°C° 0 mm 1 m/s 761 mmHg 97%
08:00 +13°C° 0 mm 1 m/s 762 mmHg 96%
09:00 +14°C° 0 mm 1 m/s 762 mmHg 94%
10:00 +14°C° 0 mm 1 m/s 762 mmHg 93%
11:00 +14°C° 0 mm 1 m/s 762 mmHg 91%
12:00 +15°C° 0 mm 1 m/s 762 mmHg 89%
13:00 +15°C° 0 mm 1 m/s 762 mmHg 86%
14:00 +15°C° 0 mm 2 m/s 762 mmHg 88%
15:00 +15°C° 0 mm 2 m/s 761 mmHg 90%
16:00 +14°C° 0 mm 2 m/s 761 mmHg 91%
17:00 +14°C° 0 mm 2 m/s 761 mmHg 92%
18:00 +13°C° 0 mm 3 m/s 761 mmHg 93%
19:00 +13°C° 0 mm 3 m/s 761 mmHg 93%
20:00 +13°C° 0 mm 3 m/s 761 mmHg 93%
21:00 +12°C° 0 mm 3 m/s 760 mmHg 94%
22:00 +12°C° 0 mm 4 m/s 760 mmHg 94%
23:00 +12°C° 0 mm 4 m/s 760 mmHg 94%

Depois de amanhã, 1 Novembro, Domingo

Tempo Temperatura Precipitação Vento Pressão Humidade
00:00 +11°C° 0 mm 4 m/s 760 mmHg 95%
01:00 +11°C° 0 mm 4 m/s 759 mmHg 95%
02:00 +11°C° 0 mm 4 m/s 759 mmHg 95%
03:00 +11°C° 0 mm 4 m/s 759 mmHg 95%
04:00 +10°C° 0 mm 4 m/s 758 mmHg 94%
05:00 +10°C° 0 mm 4 m/s 758 mmHg 95%
06:00 +10°C° 0 mm 4 m/s 758 mmHg 95%
07:00 +10°C° 0 mm 4 m/s 757 mmHg 96%
08:00 +10°C° 0 mm 4 m/s 757 mmHg 93%
09:00 +11°C° 0 mm 4 m/s 757 mmHg 91%
10:00 +11°C° 0 mm 4 m/s 757 mmHg 89%
11:00 +12°C° 0 mm 4 m/s 756 mmHg 86%
12:00 +13°C° 0 mm 4 m/s 756 mmHg 84%
13:00 +13°C° 0 mm 4 m/s 755 mmHg 82%
14:00 +13°C° 0.1 mm 4 m/s 755 mmHg 84%
15:00 +13°C° 0.1 mm 4 m/s 754 mmHg 86%
16:00 +13°C° 0.1 mm 4 m/s 754 mmHg 87%
17:00 +12°C° 0 mm 5 m/s 754 mmHg 86%
18:00 +12°C° 0 mm 5 m/s 754 mmHg 85%
19:00 +12°C° 0 mm 5 m/s 753 mmHg 84%
20:00 +12°C° 0.3 mm 5 m/s 753 mmHg 87%
21:00 +13°C° 0.3 mm 5 m/s 753 mmHg 89%
22:00 +13°C° 0.3 mm 6 m/s 753 mmHg 92%
23:00 +13°C° 0.3 mm 5 m/s 753 mmHg 91%

2 Novembro, Segunda-feira

Tempo Temperatura Precipitação Vento Pressão Humidade
00:00 +13°C° 0.3 mm 5 m/s 753 mmHg 90%
01:00 +14°C° 0.3 mm 5 m/s 753 mmHg 90%
02:00 +13°C° 0 mm 4 m/s 753 mmHg 90%
03:00 +12°C° 0 mm 3 m/s 754 mmHg 90%
04:00 +12°C° 0 mm 3 m/s 754 mmHg 91%
05:00 +12°C° 0.1 mm 3 m/s 754 mmHg 91%
06:00 +11°C° 0.1 mm 3 m/s 754 mmHg 92%
07:00 +11°C° 0.1 mm 3 m/s 754 mmHg 92%
08:00 +12°C° 0.1 mm 3 m/s 754 mmHg 92%
09:00 +12°C° 0.1 mm 4 m/s 754 mmHg 92%
10:00 +13°C° 0.1 mm 5 m/s 754 mmHg 91%
11:00 +13°C° 0 mm 5 m/s 754 mmHg 91%
12:00 +14°C° 0 mm 5 m/s 753 mmHg 91%
13:00 +15°C° 0 mm 5 m/s 753 mmHg 91%
14:00 +15°C° 0 mm 5 m/s 753 mmHg 90%
15:00 +15°C° 0 mm 5 m/s 753 mmHg 89%
16:00 +16°C° 0 mm 5 m/s 753 mmHg 88%
17:00 +16°C° 0 mm 5 m/s 753 mmHg 88%
18:00 +16°C° 0 mm 5 m/s 753 mmHg 88%
19:00 +16°C° 0 mm 5 m/s 753 mmHg 88%
20:00 +16°C° 0 mm 5 m/s 753 mmHg 87%
21:00 +16°C° 0 mm 5 m/s 753 mmHg 87%
22:00 +15°C° 0 mm 5 m/s 753 mmHg 86%
23:00 +15°C° 0 mm 5 m/s 754 mmHg 85%

3 Novembro, Terça-feira

Tempo Temperatura Precipitação Vento Pressão Humidade
00:00 +15°C° 0 mm 5 m/s 754 mmHg 84%
01:00 +15°C° 0 mm 5 m/s 755 mmHg 83%
02:00 +14°C° 0 mm 4 m/s 755 mmHg 82%
03:00 +13°C° 0 mm 4 m/s 756 mmHg 82%
04:00 +13°C° 0 mm 3 m/s 756 mmHg 81%
05:00 +12°C° 0 mm 3 m/s 757 mmHg 79%
06:00 +12°C° 0 mm 4 m/s 758 mmHg 76%
07:00 +11°C° 0 mm 4 m/s 759 mmHg 74%
08:00 +10°C° 0 mm 5 m/s 759 mmHg 70%
09:00 +10°C° 0 mm 5 m/s 760 mmHg 67%
10:00 +11°C° 0 mm 6 m/s 760 mmHg 63%
11:00 +11°C° 0 mm 6 m/s 761 mmHg 61%
12:00 +11°C° 0 mm 6 m/s 761 mmHg 59%
13:00 +11°C° 0 mm 6 m/s 761 mmHg 57%
14:00 +12°C° 0 mm 5 m/s 762 mmHg 59%
15:00 +11°C° 0 mm 4 m/s 762 mmHg 61%
16:00 +11°C° 0 mm 4 m/s 762 mmHg 63%
17:00 +10°C° 0 mm 3 m/s 763 mmHg 66%
18:00 +9°C° 0 mm 3 m/s 763 mmHg 68%
19:00 +9°C° 0 mm 2 m/s 763 mmHg 71%
20:00 +8°C° 0 mm 2 m/s 763 mmHg 72%
21:00 +8°C° 0 mm 2 m/s 764 mmHg 73%
22:00 +8°C° 0 mm 2 m/s 764 mmHg 74%
23:00 +8°C° 0 mm 2 m/s 764 mmHg 75%

4 Novembro, Quarta-feira

Tempo Temperatura Precipitação Vento Pressão Humidade
00:00 +7°C° 0 mm 2 m/s 764 mmHg 75%
01:00 +7°C° 0 mm 2 m/s 764 mmHg 76%
02:00 +7°C° 0 mm 2 m/s 764 mmHg 77%
03:00 +7°C° 0 mm 2 m/s 764 mmHg 78%
04:00 +8°C° 0 mm 1 m/s 764 mmHg 79%
05:00 +8°C° 0 mm 1 m/s 764 mmHg 79%
06:00 +8°C° 0 mm 1 m/s 765 mmHg 79%
07:00 +8°C° 0 mm 1 m/s 765 mmHg 80%
08:00 +8°C° 0 mm 2 m/s 765 mmHg 77%
09:00 +8°C° 0 mm 2 m/s 765 mmHg 74%
10:00 +9°C° 0 mm 2 m/s 766 mmHg 72%
11:00 +10°C° 0 mm 2 m/s 766 mmHg 69%
12:00 +10°C° 0 mm 2 m/s 766 mmHg 66%
13:00 +12°C° 0 mm 2 m/s 767 mmHg 63%
14:00 +11°C° 0.1 mm 1 m/s 767 mmHg 66%
15:00 +11°C° 0.1 mm 1 m/s 767 mmHg 68%
16:00 +9°C° 0.1 mm 0 m/s 767 mmHg 71%
17:00 +8°C° 0 mm 0 m/s 767 mmHg 74%
18:00 +9°C° 0 mm 1 m/s 768 mmHg 77%
19:00 +8°C° 0 mm 1 m/s 768 mmHg 80%
20:00 +7°C° 0 mm 1 m/s 769 mmHg 82%
21:00 +7°C° 0 mm 1 m/s 769 mmHg 84%
22:00 +7°C° 0 mm 1 m/s 769 mmHg 86%
23:00 +6°C° 0 mm 1 m/s 770 mmHg 87%
Mostrar mais